This is the latest recevied weather packets stored in our database for station/object DL4JCP-6. If no packets are shown the sender has not sent any weather packets the latest 1 day(s).
| Time | Temp. | Humidity | Pressure | Rain* | Wind** | Luminosity | Snow |
|---|---|---|---|---|---|---|---|
| 1777996091 | 15.56° C | 90% | 1007.9 hPa | 0 mm | 1.79 m/s, 17° | - | - |
| 1777996090 | 15.56° C | 90% | 1007.9 hPa | 0 mm | 1.79 m/s, 17° | - | - |
| 1777995790 | 15.56° C | 90% | 1008 hPa | 0 mm | 0.89 m/s, 19° | - | - |
| 1777995490 | 15.56° C | 89% | 1008 hPa | 0 mm | 1.79 m/s, 11° | - | - |
| 1777995193 | 15.56° C | 90% | 1008 hPa | 0 mm | 1.79 m/s, 51° | - | - |
| 1777995190 | 15.56° C | 90% | 1008 hPa | 0 mm | 2.24 m/s, 51° | - | - |
| 1777994890 | 15.56° C | 90% | 1007.9 hPa | 0 mm | 1.79 m/s, 13° | - | - |
| 1777994590 | 15.56° C | 89% | 1008.1 hPa | 0 mm | 0.89 m/s, 5° | - | - |
| 1777994292 | 15.56° C | 89% | 1008.1 hPa | 0 mm | 0.45 m/s, 59° | - | - |
| 1777994290 | 15.56° C | 89% | 1008.1 hPa | 0 mm | 1.34 m/s, 59° | - | - |
| 1777993989 | 15.56° C | 88% | 1008.1 hPa | 0.25 mm | 1.79 m/s, 53° | - | - |
| 1777993694 | 15.56° C | 88% | 1008.2 hPa | 0.25 mm | 1.79 m/s, 51° | - | - |
| 1777993391 | 15.56° C | 88% | 1008.3 hPa | 0.25 mm | 1.34 m/s, 51° | - | - |
| 1777993390 | 15.56° C | 88% | 1008.3 hPa | 0.25 mm | 1.34 m/s, 51° | - | - |
| 1777993091 | 15.56° C | 87% | 1008.3 hPa | 0.25 mm | 0.45 m/s, 78° | - | - |
| 1777992791 | 15.56° C | 87% | 1008.3 hPa | 0.25 mm | 0.89 m/s, 66° | - | - |
| 1777992493 | 16.11° C | 87% | 1008.7 hPa | 0.25 mm | 1.34 m/s, 61° | - | - |
| 1777992491 | 16.11° C | 87% | 1008.7 hPa | 0.25 mm | 1.79 m/s, 61° | - | - |
| 1777992191 | 16.11° C | 87% | 1008.7 hPa | 0.25 mm | 0 m/s | - | - |
| 1777991891 | 16.11° C | 87% | 1008.6 hPa | 0.25 mm | 0.89 m/s, 51° | - | - |
| 1777991598 | 16.11° C | 88% | 1008.5 hPa | 0.25 mm | 1.79 m/s, 28° | - | - |
| 1777991590 | 16.11° C | 88% | 1008.5 hPa | 0.25 mm | 1.79 m/s, 28° | - | - |
| 1777991290 | 16.11° C | 88% | 1008.5 hPa | 0.25 mm | 1.34 m/s, 326° | - | - |
| 1777990990 | 15.56° C | 87% | 1008.3 hPa | 0.25 mm | 1.34 m/s, 25° | - | - |
| 1777990695 | 15.56° C | 87% | 1008.4 hPa | 0.51 mm | 1.34 m/s, 20° | - | - |
* Rain latest hour (hover to see other rain measurements)
** Current wind speed in m/s (hover to see current wind gust speed)